Lapse_Rate
0.5 0.4 0.3 0.1 0.3 0.2 -0.0 0.2 0.4 0.2 0.1 0.1 0.2 0.5 0.6 0.8 3.0 0.4 -0.4 4.2 4.1 4.4 3.4 2.4 3.1 2.1 1.9 2.8 2.6 2.3 6.5 6.5 6.5 6.5 6.5 5.7 6.4 5.4 4.6 5.3 5.1 4.4 4.0 4.5 1.7
0.3 0.1 0.1 -0.0 -0.0 0.0 -0.1 -0.1 0.3 0.3 0.1 0.2 0.3 0.3 0.3 0.3 1.9 0.7 5.0 4.7 4.0 3.4 2.5 2.3 3.3 2.5 1.9 3.5 2.5 4.6 6.5 6.5 6.4 6.4 6.5 6.2 6.1 5.3 5.8 5.3 5.6 5.2 4.3 2.9 2.6
0.1 -0.2 -0.2 0.0 -0.2 -0.3 -0.1 -0.2 0.1 0.3 0.4 0.5 0.5 0.6 0.2 0.5 3.5 3.6 4.2 3.6 3.3 2.1 1.7 2.3 2.7 3.6 4.0 3.9 4.2 6.0 6.5 6.5 6.3 6.0 5.9 6.2 6.1 5.1 6.0 6.5 4.9 4.9 4.3 3.9 3.4
-0.1 -0.3 -0.4 -0.1 -0.1 -0.5 -0.4 -0.4 -0.1 0.4 0.4 0.6 0.6 0.8 0.7 2.6 6.5 3.6 3.5 2.7 2.6 1.7 2.6 2.7 2.7 4.3 5.7 6.5 5.0 6.4 6.1 6.1 6.1 5.6 5.9 6.4 5.4 5.5 5.6 5.3 4.3 3.4 3.9 3.9 2.5
-0.4 -0.5 -0.7 -0.5 -0.3 -0.5 -0.6 -0.4 -0.1 0.5 0.5 0.6 0.8 0.6 2.4 1.7 4.9 4.2 2.5 1.6 2.2 1.7 0.6 2.8 2.5 4.6 6.5 6.1 5.8 6.5 6.3 5.9 5.7 5.7 5.7 5.8 5.9 6.1 4.5 4.0 4.2 2.6 4.2 3.5 2.2
0.1 -0.7 -0.9 -0.9 -0.5 -0.4 -0.5 -0.2 0.1 0.3 0.7 0.6 0.9 1.9 2.9 5.0 4.5 3.4 1.4 1.6 0.9 1.5 1.1 1.3 3.4 3.4 4.7 5.8 6.3 5.9 6.1 6.1 5.9 5.8 5.8 6.3 6.1 6.0 5.5 4.3 4.4 4.2 3.9 2.7 2.3
-0.1 -0.5 -1.1 -1.1 -0.8 -0.5 -0.2 0.1 0.3 0.4 0.4 1.0 1.2 1.8 1.8 4.7 4.3 3.5 1.5 2.0 1.2 2.4 3.3 2.7 3.2 4.6 4.8 6.4 5.5 5.8 6.5 6.5 6.1 5.7 6.3 5.4 6.5 6.5 4.9 4.2 4.2 4.2 3.9 3.6 3.4
-0.2 -0.7 -1.0 -1.2 -1.0 -0.8 -0.1 0.9 1.1 1.0 1.1 1.0 1.4 1.8 4.5 5.0 4.4 2.5 1.1 3.0 1.9 2.7 3.3 3.2 3.7 2.9 4.4 5.6 4.8 6.5 6.5 6.5 6.5 5.6 5.8 6.0 6.5 6.4 4.0 5.2 4.9 4.7 3.8 3.5 3.1
-0.3 -0.8 -1.0 -1.1 -1.1 -0.6 1.0 2.3 2.4 2.1 1.5 2.3 2.8 2.8 5.3 4.3 4.0 1.9 1.6 2.6 1.8 3.8 2.6 3.2 1.8 2.9 3.4 6.5 6.5 6.5 6.5 6.5 6.5 6.1 6.5 6.5 6.5 6.2 3.7 4.0 4.1 4.3 3.7 3.7 3.7
-0.4 -1.1 -1.3 -1.1 -0.9 -0.4 1.9 2.9 2.7 2.4 1.4 2.4 1.6 4.3 4.0 4.0 3.2 2.6 1.9 2.3 3.3 4.2 4.0 2.2 1.1 6.5 6.5 6.5 6.5 6.5 6.5 6.5 6.5 6.5 6.5 6.5 6.5 6.5 4.3 5.0 4.6 4.1 2.9 3.6 3.5
-0.6 -1.4 -1.9 -1.5 -0.2 -0.0 1.1 1.0 2.3 2.0 1.0 4.8 5.4 5.3 4.7 2.9 2.4 3.9 1.5 2.7 3.6 2.5 6.5 4.3 6.5 6.5 6.5 6.5 6.5 6.5 6.5 6.5 6.5 6.5 6.5 6.5 6.5 6.5 5.5 4.7 4.6 3.9 3.6 3.4 3.1
-1.0 -1.6 -1.8 -1.7 -0.4 -0.8 -2.0 -1.8 -1.8 1.0 4.6 4.2 4.4 4.5 4.6 3.4 3.7 3.9 2.6 3.8 4.2 6.5 6.1 6.5 6.5 6.5 6.5 6.5 6.5 6.5 6.5 6.5 6.5 6.5 6.5 6.5 6.5 6.5 6.2 6.3 5.9 5.2 4.4 3.9 4.3
-1.0 -1.6 -2.0 -1.4 -0.1 -1.8 -3.3 -2.4 -2.3 -1.6 3.6 5.4 4.9 5.1 5.1 4.4 5.1 4.5 3.8 4.9 6.0 6.5 6.5 6.5 6.5 6.3 6.5 6.5 6.5 6.5 6.5 6.5 6.5 6.5 6.5 6.5 6.5 6.5 6.4 5.9 5.8 4.9 4.7 4.5 4.3
-0.8 -1.4 -1.8 -0.6 -0.0 -1.9 -1.2 -1.8 -1.9 -2.3 6.5 6.4 5.5 5.3 4.9 4.3 5.9 4.8 3.9 5.4 5.7 6.5 6.5 6.5 6.3 6.5 6.5 6.5 6.5 6.5 6.5 6.5 6.5 6.5 6.5 6.5 6.5 6.5 6.5 6.5 6.3 5.1 4.9 4.9 4.9
-0.8 -1.1 -1.4 0.7 -1.6 -1.2 -0.6 -1.8 -1.9 -0.1 6.5 6.4 5.2 5.2 4.0 4.6 5.3 5.5 3.6 4.5 6.5 6.5 6.5 6.5 6.5 6.5 6.5 6.5 6.5 6.5 6.5 6.5 6.5 6.5 6.5 6.5 6.5 6.5 6.5 6.5 6.5 6.3 5.7 5.2 5.1
-0.7 0.1 -0.5 -1.8 -2.9 -1.4 -1.8 -1.8 -0.7 6.5 6.5 6.5 5.7 6.0 6.0 4.6 4.9 3.6 3.5 3.1 5.1 6.5 6.5 6.5 6.1 6.5 6.5 6.5 6.5 6.5 6.5 6.5 6.5 6.5 6.5 6.5 6.5 6.5 6.5 6.5 6.5 6.3 5.9 6.0 5.8
-1.0 -0.1 -0.0 -1.4 0.4 -1.6 -2.1 0.1 6.5 6.5 6.5 6.5 6.5 6.5 6.5 6.5 6.4 6.1 6.5 6.5 6.5 6.5 6.5 6.5 6.5 6.4 6.2 6.5 6.5 6.5 6.5 6.5 6.5 6.5 6.5 6.5 6.5 6.5 6.5 6.5 6.3 6.1 5.5 6.0 6.1
-1.2 0.5 -0.8 -1.1 -1.5 -1.6 -0.8 5.9 6.5 6.5 6.5 6.5 6.5 6.5 6.5 6.5 6.5 6.5 6.5 6.5 6.5 6.5 6.5 6.5 6.5 6.5 6.2 6.5 6.5 6.5 6.5 6.5 6.5 6.5 6.5 6.5 6.5 6.5 6.5 5.8 5.1 5.1 5.5 6.1 6.3
-1.2 -2.5 -1.3 -1.5 -1.6 -2.0 2.2 6.5 6.5 6.5 6.5 6.5 6.5 6.5 6.5 6.5 6.5 6.5 6.5 6.5 6.5 6.5 6.5 6.5 6.5 6.5 6.5 6.4 6.5 6.5 6.5 6.5 6.5 6.5 6.5 6.5 6.5 6.5 6.5 6.5 6.0 5.8 6.3 5.8 6.1
-1.9 -1.1 0.2 -1.5 -1.6 -1.1 5.1 6.5 6.5 6.4 6.4 6.5 6.5 6.5 6.5 6.5 6.5 6.5 6.5 6.5 6.5 6.4 6.2 6.5 6.5 6.5 6.5 6.3 6.3 6.5 6.5 6.5 6.5 6.5 6.5 6.5 6.5 6.5 6.5 6.5 6.5 6.4 6.3 6.1 6.4
-1.3 2.3 0.9 -2.0 -1.8 0.2 6.5 6.5 6.5 6.1 6.1 6.5 6.5 6.5 6.5 6.5 6.5 6.5 6.5 6.5 6.4 6.5 6.2 6.5 6.5 6.5 6.5 6.5 6.5 6.5 6.5 6.5 6.5 6.5 6.5 6.5 6.5 6.5 6.5 6.5 6.5 5.9 5.9 6.7 6.1
-0.8 5.3 0.0 -2.7 2.9 3.9 6.5 6.5 6.2 6.3 5.9 6.3 6.4 6.5 6.5 6.5 6.5 6.5 6.5 6.5 5.7 5.9 6.5 6.5 6.5 6.5 6.5 6.5 6.5 6.5 6.5 6.5 6.5 6.5 6.5 6.5 6.5 6.5 6.5 6.0 6.2 6.6 6.5 6.1 6.1
0.6 0.4 -0.1 0.7 6.5 6.5 6.3 6.5 6.2 6.4 6.4 6.5 6.5 6.5 6.4 6.5 6.5 6.5 6.5 6.0 5.8 6.3 6.5 6.5 6.5 6.5 6.5 6.5 6.5 6.5 6.5 6.5 6.5 6.5 6.5 6.5 6.5 6.4 6.1 6.1 6.2 6.3 5.9 5.1 5.3
0.8 6.6 1.9 -0.6 2.0 6.1 6.5 6.5 6.5 5.8 6.2 6.1 6.4 6.3 6.5 6.5 6.5 6.5 6.5 6.4 5.9 6.1 6.5 5.9 6.5 6.5 6.5 6.5 6.5 6.5 6.5 6.5 6.5 6.5 6.5 6.5 6.5 6.5 6.5 6.5 6.2 5.7 4.9 4.3 4.5
-0.3 4.6 3.7 6.5 5.6 5.9 6.2 6.5 6.5 6.5 6.1 6.1 6.5 6.5 6.5 6.5 6.5 6.5 6.5 6.5 6.4 6.8 5.9 6.3 6.5 6.5 6.5 6.5 6.5 6.5 6.5 6.5 6.5 6.5 6.5 6.5 6.5 6.5 6.5 6.4 6.1 5.4 4.5 5.1 4.5
2.9 3.4 1.8 3.8 4.6 6.3 6.4 6.5 6.5 6.5 6.4 6.5 6.5 6.5 6.5 6.5 6.5 6.5 6.5 6.5 6.5 6.4 6.5 6.5 6.5 6.5 6.5 6.5 6.5 6.5 6.5 6.5 6.5 6.5 6.5 6.5 6.5 6.4 6.2 5.1 5.8 5.3 5.2 5.4 5.3
-1.7 -0.1 3.0 5.1 5.4 6.4 6.5 6.5 6.5 6.0 5.8 5.8 5.7 6.4 6.5 6.4 5.8 6.0 5.9 5.9 6.3 6.5 6.5 6.5 6.5 6.5 6.5 6.5 6.5 6.5 6.5 6.5 6.5 6.5 6.5 6.5 6.5 6.4 6.4 6.4 6.3 6.2 5.5 5.1 4.9
Wind_Speed
14 14 13 12 11 10 9 8 6 6 5 7 8 9 10 11 7 3 10 7 11 17 11 5 4 5 5 4 5 3 5 2 3 4 3 2 1 3 2 1 3 2 4 1 9
15 15 15 13 11 9 9 8 7 5 6 7 9 11 11 10 4 10 7 20 18 16 5 7 6 5 4 4 4 5 4 7 4 2 2 1 1 3 3 4 2 2 3 5 6
16 16 15 14 11 9 8 7 7 7 8 8 9 11 13 5 4 5 16 23 18 12 2 1 2 3 6 4 6 2 3 3 1 1 1 2 2 3 1 3 5 5 6 6 4
18 18 16 14 12 9 7 6 6 7 8 9 10 12 9 2 4 5 20 23 16 8 2 5 6 4 4 4 3 6 3 2 1 1 1 1 3 4 4 5 4 8 6 5 7
21 18 17 15 12 9 7 6 5 6 8 10 11 8 3 7 3 8 20 18 7 5 6 3 5 3 4 3 2 3 3 2 2 1 2 2 4 4 6 6 1 6 5 7 7
22 20 17 16 13 10 7 6 5 6 8 9 10 2 5 8 6 11 15 8 6 6 6 6 3 1 6 4 3 1 2 1 1 2 2 2 2 2 3 2 4 4 5 6 8
23 20 18 16 14 10 7 6 6 7 8 8 10 3 9 3 4 12 10 3 5 3 4 3 2 4 2 3 3 2 2 3 5 5 4 4 2 3 5 2 4 4 3 1 2
25 22 19 17 15 12 7 4 5 7 8 8 5 4 4 2 5 5 7 3 6 4 3 3 3 6 5 1 6 5 5 5 4 7 2 3 6 3 7 3 4 3 5 5 6
27 23 21 17 16 13 6 3 4 7 6 5 4 5 2 8 6 5 5 4 6 3 5 3 6 4 6 3 4 7 2 3 7 3 4 4 6 3 7 7 7 4 5 6 7
27 25 22 21 19 13 3 2 7 3 6 2 3 4 7 6 6 6 4 4 4 3 5 9 6 5 5 6 0 4 4 3 5 4 5 5 9 7 8 6 6 4 5 6 7
25 24 21 19 18 13 4 3 5 7 11 5 3 1 4 8 4 6 4 4 4 8 5 6 8 4 3 2 0 1 2 4 5 2 3 5 6 7 9 6 5 4 6 7 7
28 25 22 18 9 7 5 5 2 2 7 3 2 3 2 2 6 13 6 6 8 5 5 6 3 2 3 2 1 1 2 5 5 2 3 8 7 5 7 4 4 6 7 6 6
29 26 23 17 2 9 5 4 3 2 6 3 2 2 4 5 4 9 7 3 5 5 6 5 1 4 1 3 6 3 1 3 4 8 2 5 2 4 4 6 8 8 5 5 6
28 25 23 11 7 1 3 4 3 0 5 10 7 6 5 3 3 2 4 2 6 2 2 4 4 3 3 4 3 4 2 2 4 4 4 5 4 2 2 4 5 5 6 5 6
26 25 17 16 5 3 2 4 2 1 4 7 7 4 6 7 5 7 3 5 4 4 3 2 5 5 5 1 0 6 3 3 1 1 3 5 2 4 0 2 3 3 4 4 4
24 20 14 6 3 1 2 1 1 6 3 3 4 6 6 7 8 7 7 7 1 2 4 2 0 2 1 2 1 6 0 3 2 2 2 2 3 4 4 4 4 3 4 3 2
22 9 7 2 1 2 1 3 5 5 2 4 4 5 2 6 7 9 6 9 5 6 7 6 2 2 3 4 3 8 5 4 5 5 3 1 1 7 3 4 5 6 5 2 3
19 4 6 3 2 1 2 5 5 1 2 1 2 2 4 7 5 7 3 5 5 5 3 5 6 5 6 3 1 4 3 4 4 3 5 3 5 3 2 3 6 6 4 2 3
8 3 2 4 2 2 4 6 4 4 1 1 1 5 4 3 2 4 4 2 3 4 4 4 4 3 4 2 2 2 4 2 2 1 2 3 6 2 3 4 3 4 4 5 7
2 2 2 5 2 4 5 4 3 2 3 0 2 0 3 5 4 5 2 1 2 1 1 2 5 2 3 1 4 2 3 2 3 4 6 4 5 4 3 6 4 3 3 5 5
3 3 1 5 2 5 4 2 3 2 2 2 3 2 2 1 1 1 2 0 1 0 2 2 2 4 3 2 1 3 1 2 1 3 3 5 5 2 5 6 5 5 4 4 5
2 2 0 2 4 2 3 3 2 2 1 1 2 1 2 3 1 1 2 3 3 3 2 0 3 4 6 1 1 1 2 4 3 5 3 2 9 2 3 5 3 4 4 5 4
2 2 1 1 3 1 1 2 1 2 2 2 2 0 1 1 2 2 1 2 2 3 5 4 1 4 6 2 2 1 2 3 2 2 6 4 5 1 4 4 3 4 5 6 5
2 2 4 4 1 6 4 2 2 2 2 2 2 2 2 1 2 2 2 2 3 3 2 2 3 5 6 4 1 7 3 2 3 2 4 13 17 10 5 4 4 5 6 7 5
4 1 2 1 3 3 2 4 4 3 0 1 0 3 4 1 2 4 2 2 1 1 2 3 4 5 9 6 5 16 17 9 10 12 6 13 7 7 3 4 4 5 6 6 7
2 3 2 1 2 3 2 5 6 3 6 3 4 5 7 6 7 4 4 4 5 1 4 1 3 2 5 5 4 8 10 8 11 11 10 15 18 1 2 5 5 7 6 6 10
0 1 3 2 1 2 3 5 6 5 3 2 6 4 4 6 1 1 3 2 1 3 5 4 2 1 4 2 7 7 5 5 4 4 5 5 2 2 3 6 7 9 4 7 9
Wind_Direction
20 16 18 18 22 22 19 25 26 7 357 343 344 348 354 357 15 55 45 332 333 332 328 280 17 9 39 62 47 106 65 104 175 162 268 349 52 10 323 342 31 10 149 149 134
18 20 17 15 21 20 21 16 10 3 346 346 347 344 350 349 44 51 358 350 344 346 15 24 2 13 51 28 24 68 86 194 186 197 249 12 60 310 358 356 33 68 61 99 130
17 18 22 17 20 14 16 13 359 349 346 347 348 340 335 339 58 332 339 344 342 344 202 103 342 44 57 13 7 40 117 175 118 258 343 348 344 321 36 287 219 192 178 155 131
18 17 13 19 13 11 1 359 352 344 342 343 339 338 338 349 73 286 337 340 342 4 85 32 31 50 64 58 3 90 68 139 167 37 351 290 276 287 201 223 252 204 173 153 144
15 16 11 8 12 7 357 343 342 343 339 342 340 340 42 41 24 311 335 339 351 19 48 50 56 104 97 83 78 89 175 157 163 173 235 229 253 256 262 261 313 144 168 152 146
17 13 12 4 8 6 0 341 331 334 338 342 347 353 68 69 267 328 342 345 15 15 15 35 100 127 91 68 75 208 100 77 61 345 338 313 297 4 302 314 203 164 193 178 166
15 11 10 3 7 1 4 341 329 331 334 346 355 62 67 158 340 335 357 334 347 12 35 22 50 66 103 87 330 57 30 357 29 12 1 329 16 265 320 326 213 218 215 166 144
10 8 7 3 2 356 350 346 329 323 326 332 359 71 81 302 323 359 337 330 358 18 62 21 30 92 49 338 21 40 52 19 22 360 332 53 282 299 6 351 258 291 49 84 58
6 4 1 2 357 355 356 4 359 313 328 352 36 88 28 333 17 322 15 343 316 15 25 64 64 76 23 57 23 14 359 17 327 34 338 56 276 285 7 358 287 293 80 102 99
1 359 358 355 356 355 354 338 5 52 355 37 77 39 10 312 301 330 327 360 25 343 15 36 48 59 24 40 334 327 355 328 264 336 359 287 266 318 329 315 336 36 109 103 90
360 355 354 354 0 6 19 25 27 4 34 82 328 91 316 297 282 344 3 1 21 52 45 8 60 54 322 328 291 203 231 265 267 302 319 271 290 324 340 24 7 115 113 96 79
354 357 350 357 15 19 62 73 62 168 81 29 17 354 289 331 3 344 18 60 43 44 336 30 66 282 265 340 262 236 312 317 289 350 7 321 322 39 12 1 41 81 67 65 69
351 353 351 356 58 41 70 102 312 348 88 9 30 16 321 20 33 330 21 42 63 48 21 104 3 328 347 35 18 339 313 314 273 322 203 273 336 15 19 39 56 45 59 62 81
351 354 355 350 50 330 39 328 333 44 79 328 347 3 348 342 45 319 15 66 35 65 36 76 353 29 33 56 49 338 251 285 296 7 292 10 279 26 47 48 49 46 56 70 70
351 350 2 39 138 59 293 315 296 30 47 324 322 300 348 73 297 349 16 21 56 20 45 343 19 13 31 352 103 246 315 297 255 224 12 342 55 272 158 210 217 108 92 74 72
350 354 356 22 51 334 313 326 17 45 263 2 337 352 15 11 357 316 23 32 115 59 21 71 79 70 275 306 260 289 100 69 68 99 20 284 110 257 208 212 188 158 152 123 81
345 11 38 351 32 325 76 41 40 109 334 346 342 10 41 349 359 17 31 20 39 20 14 341 36 353 14 336 3 16 18 350 358 9 246 231 356 265 299 290 210 155 165 140 24
341 36 36 44 344 102 35 57 82 270 278 12 344 307 67 14 10 2 46 32 25 48 58 38 328 11 338 68 235 10 46 122 302 295 275 320 234 273 349 30 104 118 138 41 3
335 4 51 342 57 55 73 57 188 195 169 346 346 62 16 16 10 44 48 87 356 15 80 18 270 322 53 12 69 349 40 191 235 137 36 254 286 97 82 60 85 120 111 59 26
49 41 320 350 99 66 70 145 151 175 141 127 90 69 26 332 33 40 9 158 161 44 164 195 306 29 303 95 45 72 161 351 9 332 307 287 285 262 237 218 203 189 36 45 52
51 39 288 109 84 52 98 171 166 170 153 99 161 122 144 39 97 332 319 304 229 340 57 104 108 289 343 67 125 3 359 57 159 162 220 302 261 244 288 223 158 128 147 37 358
63 15 20 147 49 36 96 149 152 154 114 110 109 129 165 176 176 231 246 223 183 157 128 240 151 274 247 258 320 258 255 164 135 264 235 238 280 43 88 91 132 55 32 2 344
73 269 331 134 111 67 211 93 92 125 165 160 151 15 68 129 344 192 247 14 154 173 173 179 227 318 342 33 24 272 236 198 123 57 197 253 269 141 87 62 36 54 7 338 345
67 6 341 45 42 124 138 145 136 32 114 130 138 103 122 69 143 279 248 203 202 193 118 148 180 197 220 242 96 282 238 207 171 208 253 239 276 280 352 328 6 359 343 323 340
23 171 144 310 1 90 99 162 142 199 37 188 140 211 165 198 263 231 234 278 101 98 83 156 245 199 266 265 239 269 271 256 227 239 231 280 284 312 263 319 328 323 323 332 337
124 132 29 67 348 97 10 205 192 167 152 231 209 196 191 189 197 219 174 202 244 129 169 188 270 152 264 268 269 270 266 224 235 248 247 266 278 14 259 340 331 319 322 332 326
257 0 104 350 59 112 227 196 204 156 185 160 201 164 214 248 123 214 225 278 347 196 189 185 224 300 261 5 315 290 251 180 196 195 185 233 244 8 316 330 317 307 343 322 314